TimeCST,TemperatureF,Dew PointF,Humidity,Sea Level PressureIn,VisibilityMPH,Wind Direction,Wind SpeedMPH,Gust SpeedMPH,PrecipitationIn,Events,Conditions,WindDirDegrees,DateUTC
12:15 AM,35.6,32.9,90,30.45,7.0,SSE,6.9,-,N/A,,Overcast,160,2012-11-17 06:15:00
12:35 AM,35.6,32.9,90,30.44,7.0,South,9.2,-,N/A,,Overcast,170,2012-11-17 06:35:00
12:55 AM,35.4,32.4,89,30.44,10.0,SSE,8.1,-,N/A,,Overcast,160,2012-11-17 06:55:00
1:15 AM,35.1,32.4,90,30.44,10.0,SSE,10.4,-,N/A,,Overcast,160,2012-11-17 07:15:00
1:35 AM,34.7,32.5,92,30.45,7.0,South,8.1,-,N/A,,Overcast,170,2012-11-17 07:35:00
1:55 AM,34.7,32.9,93,30.45,7.0,South,5.8,-,N/A,,Overcast,170,2012-11-17 07:55:00
2:15 AM,34.3,32.9,94,30.45,5.0,South,5.8,-,N/A,,Overcast,180,2012-11-17 08:15:00
2:35 AM,34.2,32.9,95,30.45,4.0,South,4.6,-,N/A,,Overcast,180,2012-11-17 08:35:00
2:55 AM,33.8,32.5,95,30.45,3.0,South,4.6,-,N/A,,Overcast,180,2012-11-17 08:55:00
3:15 AM,33.6,32.9,97,30.45,2.5,South,4.6,-,N/A,,Overcast,180,2012-11-17 09:15:00
3:35 AM,33.4,32.9,98,30.45,2.5,SSE,3.5,-,N/A,,Overcast,160,2012-11-17 09:35:00
3:55 AM,33.4,32.9,98,30.45,2.0,SSE,3.5,-,N/A,,Overcast,160,2012-11-17 09:55:00
4:15 AM,33.3,32.7,98,30.45,2.0,South,4.6,-,N/A,,Overcast,180,2012-11-17 10:15:00
4:35 AM,33.1,32.5,98,30.45,1.8,South,5.8,-,N/A,,Overcast,170,2012-11-17 10:35:00
4:55 AM,32.9,32.4,98,30.45,1.2,South,5.8,-,N/A,,Overcast,170,2012-11-17 10:55:00
5:15 AM,32.5,32.2,99,30.45,1.0,South,5.8,-,N/A,,Overcast,170,2012-11-17 11:15:00
5:35 AM,32.5,32.4,99,30.45,1.2,South,4.6,-,N/A,,Overcast,170,2012-11-17 11:35:00
5:55 AM,32.5,32.4,99,30.45,1.0,South,4.6,-,N/A,,Overcast,180,2012-11-17 11:55:00
6:15 AM,32.5,32.4,99,30.45,1.0,South,5.8,-,N/A,,Overcast,170,2012-11-17 12:15:00
6:35 AM,32.2,32.2,100,30.45,0.8,SSE,5.8,-,N/A,,Overcast,160,2012-11-17 12:35:00
6:55 AM,32.0,32.0,100,30.45,0.8,South,3.5,-,N/A,,Overcast,180,2012-11-17 12:55:00
7:15 AM,32.0,32.0,100,30.46,0.2,Calm,Calm,-,N/A,Fog,Fog,0,2012-11-17 13:15:00
7:35 AM,32.2,32.2,100,30.46,0.2,SSE,4.6,-,N/A,Fog,Fog,160,2012-11-17 13:35:00
7:55 AM,32.2,32.2,100,30.46,0.2,SSE,3.5,-,N/A,Fog,Fog,160,2012-11-17 13:55:00
8:15 AM,32.2,32.2,100,30.46,0.5,SSE,4.6,-,N/A,Fog,Fog,160,2012-11-17 14:15:00
8:35 AM,32.5,32.5,100,30.46,0.2,SE,3.5,-,N/A,Fog,Fog,140,2012-11-17 14:35:00
8:55 AM,32.5,32.5,100,30.46,0.5,SSE,5.8,-,N/A,Fog,Fog,150,2012-11-17 14:55:00
9:15 AM,33.1,32.9,99,30.46,0.8,SSE,5.8,-,N/A,,Overcast,160,2012-11-17 15:15:00
9:35 AM,33.4,33.3,99,30.46,0.8,South,4.6,-,N/A,,Overcast,170,2012-11-17 15:35:00
9:55 AM,34.3,33.4,97,30.46,1.2,SSE,5.8,-,N/A,,Overcast,160,2012-11-17 15:55:00
10:15 AM,35.6,33.8,93,30.45,1.8,SSE,5.8,-,N/A,,Overcast,150,2012-11-17 16:15:00
10:35 AM,36.7,34.0,90,30.45,2.0,SSE,5.8,-,N/A,,Overcast,150,2012-11-17 16:35:00
11:55 AM,43.7,35.4,73,30.42,5.0,SE,6.9,-,N/A,,Haze,140,2012-11-17 17:55:00
12:15 PM,45.3,35.8,69,30.41,5.0,SSE,6.9,-,N/A,,Haze,150,2012-11-17 18:15:00
12:35 PM,46.8,36.1,67,30.41,5.0,South,8.1,-,N/A,,Haze,180,2012-11-17 18:35:00
12:55 PM,48.0,36.3,64,30.41,7.0,South,8.1,-,N/A,,Clear,170,2012-11-17 18:55:00
1:15 PM,47.8,36.1,64,30.40,7.0,South,9.2,-,N/A,,Clear,170,2012-11-17 19:15:00
1:35 PM,48.2,35.6,62,30.40,7.0,SSE,8.1,-,N/A,,Clear,160,2012-11-17 19:35:00
1:55 PM,48.4,35.1,60,30.39,7.0,SSE,9.2,-,N/A,,Clear,160,2012-11-17 19:55:00
2:15 PM,48.6,34.7,59,30.39,10.0,SSE,9.2,-,N/A,,Clear,160,2012-11-17 20:15:00
2:35 PM,48.4,34.0,58,30.38,10.0,SSE,9.2,-,N/A,,Clear,160,2012-11-17 20:35:00
2:55 PM,48.2,33.8,58,30.39,10.0,South,6.9,-,N/A,,Clear,170,2012-11-17 20:55:00
3:15 PM,47.8,33.8,58,30.39,10.0,South,9.2,-,N/A,,Clear,170,2012-11-17 21:15:00
3:35 PM,47.8,34.2,59,30.39,10.0,SE,6.9,-,N/A,,Clear,140,2012-11-17 21:35:00
3:55 PM,46.4,34.0,62,30.40,10.0,SSE,3.5,-,N/A,,Clear,150,2012-11-17 21:55:00
4:15 PM,45.9,34.0,63,30.40,10.0,SE,4.6,-,N/A,,Clear,140,2012-11-17 22:15:00
4:35 PM,44.6,33.8,66,30.40,10.0,SE,3.5,-,N/A,,Clear,140,2012-11-17 22:35:00
4:55 PM,43.9,33.6,67,30.39,10.0,SE,4.6,-,N/A,,Clear,140,2012-11-17 22:55:00
5:15 PM,43.2,33.3,68,30.38,10.0,SE,4.6,-,N/A,,Clear,140,2012-11-17 23:15:00
5:35 PM,42.8,33.3,69,30.38,10.0,SSE,5.8,-,N/A,,Clear,150,2012-11-17 23:35:00
5:55 PM,42.6,33.1,69,30.38,10.0,SSE,5.8,-,N/A,,Clear,150,2012-11-17 23:55:00
6:15 PM,42.6,33.3,69,30.38,10.0,SSE,5.8,-,N/A,,Clear,160,2012-11-18 00:15:00
6:35 PM,42.4,33.3,70,30.38,10.0,SSE,5.8,-,N/A,,Clear,160,2012-11-18 00:35:00
6:55 PM,41.9,33.1,71,30.38,10.0,SSE,5.8,-,N/A,,Clear,160,2012-11-18 00:55:00
7:15 PM,41.5,32.9,71,30.38,10.0,SSE,5.8,-,N/A,,Clear,160,2012-11-18 01:15:00
7:35 PM,41.2,32.2,70,30.39,10.0,SSE,4.6,-,N/A,,Clear,150,2012-11-18 01:35:00
7:55 PM,40.8,32.0,71,30.38,10.0,SSE,4.6,-,N/A,,Clear,160,2012-11-18 01:55:00
8:15 PM,40.5,32.0,72,30.38,10.0,SE,4.6,-,N/A,,Clear,140,2012-11-18 02:15:00
8:55 PM,39.7,31.6,73,30.38,10.0,SSE,5.8,-,N/A,,Clear,150,2012-11-18 02:55:00
9:15 PM,39.2,31.1,73,30.39,10.0,SSE,3.5,-,N/A,,Clear,150,2012-11-18 03:15:00
9:35 PM,39.0,31.1,73,30.39,10.0,SSE,4.6,-,N/A,,Clear,150,2012-11-18 03:35:00
9:55 PM,38.3,30.9,75,30.39,10.0,SSE,4.6,-,N/A,,Clear,150,2012-11-18 03:55:00
10:15 PM,38.5,30.6,73,30.38,7.0,SSE,4.6,-,N/A,,Clear,160,2012-11-18 04:15:00
10:35 PM,38.3,30.7,74,30.38,7.0,SSE,6.9,-,N/A,,Clear,150,2012-11-18 04:35:00
10:55 PM,38.3,30.7,74,30.38,7.0,SSE,6.9,-,N/A,,Clear,160,2012-11-18 04:55:00
11:15 PM,38.5,30.7,74,30.38,7.0,SSE,4.6,-,N/A,,Clear,160,2012-11-18 05:15:00
11:35 PM,38.3,30.6,74,30.38,7.0,SSE,4.6,-,N/A,,Clear,160,2012-11-18 05:35:00